This is the latest recevied weather packets stored in our database for station/object KD4WLE. If no packets are shown the sender has not sent any weather packets the latest 10 day(s).
| Time | Temp. | Humidity | Pressure | Rain* | Wind** | Luminosity | Snow |
|---|---|---|---|---|---|---|---|
| 1777983878 | 23.33° C | 82% | 1016.8 hPa | 0 mm | - | 168 W/m² | - |
| 1777983574 | 23.33° C | 82% | 1016.8 hPa | 0 mm | - | 154 W/m² | - |
| 1777983272 | 23.33° C | 83% | 1016.8 hPa | 0 mm | - | 141 W/m² | - |
| 1777982967 | 22.78° C | 84% | 1016.9 hPa | 0 mm | - | 128 W/m² | - |
| 1777982664 | 22.22° C | 86% | 1016.9 hPa | 0 mm | - | 93 W/m² | - |
| 1777982363 | 22.22° C | 87% | 1017 hPa | 0 mm | - | 56 W/m² | - |
| 1777982060 | 21.67° C | 88% | 1016.8 hPa | 0 mm | - | 62 W/m² | - |
| 1777981758 | 21.11° C | 90% | 1016.8 hPa | 0 mm | - | 43 W/m² | - |
| 1777981454 | 21.11° C | 91% | 1016.7 hPa | 0 mm | - | 41 W/m² | - |
| 1777981150 | 20.56° C | 93% | 1016.5 hPa | 0 mm | - | 41 W/m² | - |
| 1777980847 | 20.56° C | 94% | 1016.5 hPa | 0 mm | - | 36 W/m² | - |
| 1777980543 | 19.44° C | 96% | 1016.5 hPa | 0 mm | - | 34 W/m² | - |
| 1777980240 | 19.44° C | 96% | 1016.4 hPa | 0 mm | - | 32 W/m² | - |
| 1777979936 | 18.89° C | 96% | 1016.2 hPa | 0 mm | - | 29 W/m² | - |
| 1777979631 | 18.89° C | 96% | 1016.3 hPa | 0 mm | - | 26 W/m² | - |
| 1777979327 | 18.89° C | 96% | 1016.3 hPa | 0 mm | - | 22 W/m² | - |
| 1777979025 | 18.89° C | 96% | 1016.3 hPa | 0 mm | - | 18 W/m² | - |
| 1777978721 | 18.89° C | 96% | 1016 hPa | 0 mm | - | 14 W/m² | - |
| 1777978418 | 18.89° C | 95% | 1016 hPa | 0 mm | - | 10 W/m² | - |
| 1777978114 | 18.89° C | 95% | 1015.7 hPa | 0 mm | - | 7 W/m² | - |
| 1777977812 | 18.89° C | 94% | 1015.8 hPa | 0 mm | - | 4 W/m² | - |
| 1777977507 | 18.89° C | 94% | 1015.7 hPa | 0 mm | - | 2 W/m² | - |
| 1777977205 | 18.89° C | 93% | 1015.8 hPa | 0 mm | - | 1 W/m² | - |
| 1777976903 | 18.89° C | 93% | 1016 hPa | 0 mm | - | 0 W/m² | - |
| 1777976600 | 18.89° C | 93% | 1015.8 hPa | 0 mm | - | 0 W/m² | - |
* Rain latest hour (hover to see other rain measurements)
** Current wind speed in m/s (hover to see current wind gust speed)